Time,TemperatureF,DewpointF,PressureIn,WindDirection,WindDirectionDegrees,WindSpeedMPH,WindSpeedGustMPH,Humidity,HourlyPrecipIn,Conditions,Clouds,dailyrainin,SoftwareType,DateUTC
2013-07-12 00:02:00,75.0,62.0,30.01,SSE,162,6.0,9.0,63,0.00,,,0.00,,2013-07-12 05:02:00,
2013-07-12 00:11:00,75.0,62.0,30.01,SSE,163,7.0,11.0,63,0.00,,,0.00,,2013-07-12 05:11:00,
2013-07-12 00:22:00,74.0,61.0,30.01,SSE,167,6.0,10.0,64,0.00,,,0.00,,2013-07-12 05:22:00,
2013-07-12 00:32:00,74.0,61.0,30.01,SSE,162,8.0,11.0,64,0.00,,,0.00,,2013-07-12 05:32:00,
2013-07-12 00:43:00,74.0,61.0,30.02,SSE,151,10.0,16.0,64,0.00,,,0.00,,2013-07-12 05:43:00,
2013-07-12 00:53:00,74.0,61.0,30.02,SSE,154,7.0,12.0,64,0.00,,,0.00,,2013-07-12 05:53:00,
2013-07-12 01:01:00,73.0,61.0,30.02,SSE,158,7.0,13.0,65,0.00,,,0.00,,2013-07-12 06:01:00,
2013-07-12 01:11:00,73.0,61.0,30.02,South,170,9.0,19.0,65,0.00,,,0.00,,2013-07-12 06:11:00,
2013-07-12 01:22:00,73.0,61.0,30.01,SSE,153,11.0,14.0,65,0.00,,,0.00,,2013-07-12 06:22:00,
2013-07-12 01:32:00,73.0,61.0,30.01,South,169,9.0,16.0,65,0.00,,,0.00,,2013-07-12 06:32:00,
2013-07-12 01:42:00,73.0,61.0,30.01,SE,143,10.0,16.0,66,0.00,,,0.00,,2013-07-12 06:42:00,
2013-07-12 01:52:00,72.0,60.0,30.01,South,169,11.0,14.0,66,0.00,,,0.00,,2013-07-12 06:52:00,
2013-07-12 02:02:00,72.0,60.0,30.01,SSE,167,9.0,12.0,66,0.00,,,0.00,,2013-07-12 07:02:00,
2013-07-12 02:12:00,72.0,60.0,30.01,South,178,10.0,14.0,65,0.00,,,0.00,,2013-07-12 07:12:00,
2013-07-12 02:22:00,73.0,60.0,30.00,South,186,9.0,13.0,64,0.00,,,0.00,,2013-07-12 07:22:00,
2013-07-12 02:32:00,73.0,60.0,30.01,South,187,9.0,12.0,64,0.00,,,0.00,,2013-07-12 07:32:00,
2013-07-12 02:43:00,73.0,60.0,30.01,South,187,9.0,13.0,64,0.00,,,0.00,,2013-07-12 07:43:00,
2013-07-12 02:52:00,73.0,60.0,30.01,South,188,10.0,14.0,64,0.00,,,0.00,,2013-07-12 07:52:00,
2013-07-12 03:01:00,72.0,59.0,30.01,South,181,10.0,12.0,64,0.00,,,0.00,,2013-07-12 08:01:00,
2013-07-12 03:11:00,72.0,60.0,30.01,South,178,11.0,18.0,65,0.00,,,0.00,,2013-07-12 08:11:00,
2013-07-12 03:21:00,72.0,60.0,30.01,South,178,9.0,12.0,65,0.00,,,0.00,,2013-07-12 08:21:00,
2013-07-12 03:32:00,72.0,60.0,30.01,South,187,9.0,15.0,65,0.00,,,0.00,,2013-07-12 08:32:00,
2013-07-12 03:42:00,72.0,60.0,30.01,South,182,7.0,12.0,66,0.00,,,0.00,,2013-07-12 08:42:00,
2013-07-12 03:53:00,72.0,60.0,30.00,South,187,9.0,14.0,66,0.00,,,0.00,,2013-07-12 08:53:00,
2013-07-12 04:02:00,72.0,60.0,30.01,South,185,8.0,11.0,66,0.00,,,0.00,,2013-07-12 09:02:00,
2013-07-12 04:12:00,71.0,59.0,30.01,SSW,192,8.0,12.0,66,0.00,,,0.00,,2013-07-12 09:12:00,
2013-07-12 04:22:00,71.0,59.0,30.01,South,171,10.0,12.0,66,0.00,,,0.00,,2013-07-12 09:22:00,
2013-07-12 04:32:00,71.0,59.0,30.00,SSW,196,6.0,11.0,66,0.00,,,0.00,,2013-07-12 09:32:00,
2013-07-12 04:42:00,71.0,59.0,30.00,South,185,8.0,9.0,66,0.00,,,0.00,,2013-07-12 09:42:00,
2013-07-12 04:52:00,71.0,59.0,30.00,South,180,8.0,13.0,66,0.00,,,0.00,,2013-07-12 09:52:00,
2013-07-12 05:01:00,71.0,59.0,30.00,SSW,198,10.0,14.0,66,0.00,,,0.00,,2013-07-12 10:01:00,
2013-07-12 05:11:00,71.0,59.0,30.00,South,170,10.0,14.0,67,0.00,,,0.00,,2013-07-12 10:11:00,
2013-07-12 05:22:00,70.0,59.0,30.01,South,184,9.0,14.0,67,0.00,,,0.00,,2013-07-12 10:22:00,
2013-07-12 05:33:00,70.0,59.0,30.00,SSE,168,8.0,13.0,68,0.00,,,0.00,,2013-07-12 10:33:00,
2013-07-12 05:42:00,70.0,59.0,30.01,South,174,10.0,15.0,68,0.00,,,0.00,,2013-07-12 10:42:00,
2013-07-12 05:52:00,70.0,59.0,30.00,South,170,9.0,12.0,69,0.00,,,0.00,,2013-07-12 10:52:00,
2013-07-12 06:02:00,70.0,59.0,30.01,South,190,8.0,13.0,69,0.00,,,0.00,,2013-07-12 11:02:00,
2013-07-12 06:11:00,70.0,60.0,30.01,South,172,8.0,12.0,70,0.00,,,0.00,,2013-07-12 11:11:00,
2013-07-12 06:22:00,70.0,60.0,30.01,South,172,11.0,14.0,70,0.00,,,0.00,,2013-07-12 11:22:00,
2013-07-12 06:32:00,70.0,60.0,30.01,South,184,10.0,15.0,70,0.00,,,0.00,,2013-07-12 11:32:00,
2013-07-12 06:43:00,69.0,59.0,30.01,South,185,10.0,15.0,71,0.00,,,0.00,,2013-07-12 11:43:00,
2013-07-12 06:52:00,70.0,60.0,30.01,SSE,167,11.0,16.0,71,0.00,,,0.00,,2013-07-12 11:52:00,
2013-07-12 07:01:00,70.0,60.0,30.01,SSE,166,9.0,13.0,71,0.00,,,0.00,,2013-07-12 12:01:00,
2013-07-12 07:11:00,70.0,60.0,30.01,SSE,166,9.0,13.0,71,0.00,,,0.00,,2013-07-12 12:11:00,
2013-07-12 07:22:00,70.0,60.0,30.01,South,180,11.0,16.0,71,0.00,,,0.00,,2013-07-12 12:22:00,
2013-07-12 07:32:00,70.0,60.0,30.01,SSW,193,11.0,13.0,71,0.00,,,0.00,,2013-07-12 12:32:00,
2013-07-12 07:43:00,71.0,61.0,30.02,South,169,11.0,17.0,71,0.00,,,0.00,,2013-07-12 12:43:00,
2013-07-12 07:52:00,71.0,61.0,30.02,South,185,10.0,12.0,70,0.00,,,0.00,,2013-07-12 12:52:00,
2013-07-12 08:01:00,71.0,61.0,30.02,South,183,14.0,16.0,70,0.00,,,0.00,,2013-07-12 13:01:00,
2013-07-12 08:12:00,72.0,61.0,30.02,South,176,13.0,17.0,69,0.00,,,0.00,,2013-07-12 13:12:00,
2013-07-12 08:22:00,72.0,62.0,30.02,SSE,164,9.0,14.0,70,0.00,,,0.00,,2013-07-12 13:22:00,
2013-07-12 08:32:00,72.0,61.0,30.02,South,184,12.0,16.0,68,0.00,,,0.00,,2013-07-12 13:32:00,
2013-07-12 08:43:00,73.0,62.0,30.02,South,184,11.0,15.0,68,0.00,,,0.00,,2013-07-12 13:43:00,
2013-07-12 08:53:00,74.0,62.0,30.02,South,180,13.0,20.0,67,0.00,,,0.00,,2013-07-12 13:53:00,
2013-07-12 09:02:00,74.0,62.0,30.02,SSW,196,12.0,14.0,66,0.00,,,0.00,,2013-07-12 14:02:00,
2013-07-12 09:11:00,74.0,62.0,30.02,South,182,12.0,17.0,66,0.00,,,0.00,,2013-07-12 14:11:00,
2013-07-12 09:22:00,74.0,62.0,30.01,SSE,164,10.0,22.0,66,0.00,,,0.00,,2013-07-12 14:22:00,
2013-07-12 09:32:00,75.0,62.0,30.02,SSW,195,17.0,23.0,64,0.00,,,0.00,,2013-07-12 14:32:00,
2013-07-12 09:43:00,76.0,63.0,30.01,South,181,14.0,22.0,64,0.00,,,0.00,,2013-07-12 14:43:00,
2013-07-12 09:53:00,76.0,63.0,30.01,South,184,13.0,17.0,64,0.00,,,0.00,,2013-07-12 14:53:00,
2013-07-12 10:01:00,75.0,62.0,30.01,SSW,199,17.0,22.0,64,0.00,,,0.00,,2013-07-12 15:01:00,
2013-07-12 10:11:00,75.0,62.0,30.01,South,177,16.0,20.0,65,0.00,,,0.00,,2013-07-12 15:11:00,
2013-07-12 10:22:00,76.0,63.0,30.01,South,186,13.0,18.0,64,0.00,,,0.00,,2013-07-12 15:22:00,
2013-07-12 10:33:00,77.0,63.0,30.01,South,175,12.0,18.0,63,0.00,,,0.00,,2013-07-12 15:33:00,
2013-07-12 10:43:00,78.0,63.0,30.00,South,174,13.0,21.0,61,0.00,,,0.00,,2013-07-12 15:43:00,
2013-07-12 10:52:00,78.0,63.0,30.00,South,174,13.0,21.0,61,0.00,,,0.00,,2013-07-12 15:52:00,
2013-07-12 11:01:00,78.0,63.0,30.00,South,170,11.0,18.0,60,0.00,,,0.00,,2013-07-12 16:01:00,
2013-07-12 11:11:00,79.0,64.0,30.00,SSE,151,10.0,15.0,61,0.00,,,0.00,,2013-07-12 16:11:00,
2013-07-12 11:22:00,79.0,64.0,30.00,SSE,163,11.0,16.0,60,0.00,,,0.00,,2013-07-12 16:22:00,
2013-07-12 11:32:00,79.0,63.0,30.00,SSE,151,10.0,15.0,59,0.00,,,0.00,,2013-07-12 16:32:00,
2013-07-12 11:42:00,80.0,63.0,29.99,SSW,193,13.0,20.0,56,0.00,,,0.00,,2013-07-12 16:42:00,
2013-07-12 11:55:00,81.0,65.0,29.99,SSE,161,12.0,16.0,58,0.00,,,0.00,,2013-07-12 16:55:00,
2013-07-12 12:05:00,80.0,64.0,29.99,South,169,9.0,11.0,58,0.00,,,0.00,,2013-07-12 17:05:00,
2013-07-12 12:23:00,82.0,65.0,29.98,SSE,147,11.0,16.0,56,0.00,,,0.00,,2013-07-12 17:23:00,
2013-07-12 12:35:00,83.0,66.0,29.98,South,179,14.0,22.0,56,0.00,,,0.00,,2013-07-12 17:35:00,
2013-07-12 12:44:00,83.0,65.0,29.98,SSE,159,14.0,25.0,54,0.00,,,0.00,,2013-07-12 17:44:00,
2013-07-12 12:53:00,83.0,65.0,29.98,SSE,163,15.0,24.0,54,0.00,,,0.00,,2013-07-12 17:53:00,
2013-07-12 13:05:00,84.0,65.0,29.98,South,186,15.0,20.0,53,0.00,,,0.00,,2013-07-12 18:05:00,
2013-07-12 13:25:00,85.0,66.0,29.97,SSE,160,12.0,20.0,54,0.00,,,0.00,,2013-07-12 18:25:00,
2013-07-12 13:34:00,85.0,67.0,29.96,SSE,153,11.0,19.0,55,0.00,,,0.00,,2013-07-12 18:34:00,
2013-07-12 13:54:00,85.0,67.0,29.96,SSE,154,9.0,22.0,55,0.00,,,0.00,,2013-07-12 18:54:00,
2013-07-12 14:04:00,86.0,67.0,29.96,SSE,158,11.0,18.0,53,0.00,,,0.00,,2013-07-12 19:04:00,
2013-07-12 14:22:00,86.0,67.0,29.96,SSE,156,14.0,22.0,53,0.00,,,0.00,,2013-07-12 19:22:00,
2013-07-12 14:32:00,86.0,67.0,29.96,SSE,157,13.0,19.0,53,0.00,,,0.00,,2013-07-12 19:32:00,
2013-07-12 14:44:00,87.0,67.0,29.95,South,171,13.0,17.0,52,0.00,,,0.00,,2013-07-12 19:44:00,
2013-07-12 14:54:00,87.0,68.0,29.95,SSE,160,9.0,15.0,54,0.00,,,0.00,,2013-07-12 19:54:00,
2013-07-12 15:02:00,87.0,67.0,29.95,SSE,154,14.0,23.0,52,0.00,,,0.00,,2013-07-12 20:02:00,
2013-07-12 15:13:00,87.0,67.0,29.94,SSE,152,10.0,23.0,52,0.00,,,0.00,,2013-07-12 20:13:00,
2013-07-12 15:23:00,87.0,67.0,29.94,SSE,156,15.0,23.0,52,0.00,,,0.00,,2013-07-12 20:23:00,
2013-07-12 15:33:00,88.0,68.0,29.94,South,172,14.0,16.0,52,0.00,,,0.00,,2013-07-12 20:33:00,
2013-07-12 15:43:00,88.0,68.0,29.94,SSE,168,12.0,25.0,52,0.00,,,0.00,,2013-07-12 20:43:00,
2013-07-12 15:54:00,88.0,68.0,29.95,SSE,155,12.0,18.0,52,0.00,,,0.00,,2013-07-12 20:54:00,
2013-07-12 16:02:00,88.0,69.0,29.94,SSE,168,12.0,16.0,53,0.00,,,0.00,,2013-07-12 21:02:00,
2013-07-12 16:14:00,88.0,68.0,29.94,SE,144,14.0,17.0,52,0.00,,,0.00,,2013-07-12 21:14:00,
2013-07-12 16:24:00,88.0,68.0,29.94,SE,134,12.0,20.0,51,0.00,,,0.00,,2013-07-12 21:24:00,
2013-07-12 16:33:00,88.0,68.0,29.94,SSE,161,17.0,24.0,52,0.00,,,0.00,,2013-07-12 21:33:00,
2013-07-12 16:45:00,88.0,68.0,29.94,South,181,13.0,15.0,52,0.00,,,0.00,,2013-07-12 21:45:00,
2013-07-12 16:54:00,88.0,68.0,29.93,SSE,160,14.0,21.0,52,0.00,,,0.00,,2013-07-12 21:54:00,
2013-07-12 17:02:00,89.0,69.0,29.93,SSW,200,12.0,23.0,52,0.00,,,0.00,,2013-07-12 22:02:00,
2013-07-12 17:22:00,89.0,69.0,29.93,South,176,13.0,17.0,52,0.00,,,0.00,,2013-07-12 22:22:00,
2013-07-12 17:33:00,89.0,68.0,29.93,SSW,197,14.0,25.0,50,0.00,,,0.00,,2013-07-12 22:33:00,
2013-07-12 17:44:00,89.0,68.0,29.93,South,179,16.0,26.0,51,0.00,,,0.00,,2013-07-12 22:44:00,
2013-07-12 17:53:00,89.0,68.0,29.93,South,174,16.0,24.0,51,0.00,,,0.00,,2013-07-12 22:53:00,
2013-07-12 18:03:00,88.0,69.0,29.93,South,178,12.0,23.0,53,0.00,,,0.00,,2013-07-12 23:03:00,
2013-07-12 18:12:00,88.0,68.0,29.93,SSE,159,18.0,26.0,52,0.00,,,0.00,,2013-07-12 23:12:00,
2013-07-12 18:23:00,87.0,68.0,29.92,South,175,11.0,20.0,53,0.00,,,0.00,,2013-07-12 23:23:00,
2013-07-12 18:33:00,88.0,69.0,29.92,South,179,10.0,14.0,53,0.00,,,0.00,,2013-07-12 23:33:00,
2013-07-12 18:43:00,87.0,68.0,29.92,South,169,13.0,20.0,53,0.00,,,0.00,,2013-07-12 23:43:00,
2013-07-12 18:53:00,87.0,68.0,29.92,South,170,14.0,24.0,53,0.00,,,0.00,,2013-07-12 23:53:00,
2013-07-12 19:04:00,87.0,68.0,29.92,SSE,148,15.0,21.0,54,0.00,,,0.00,,2013-07-13 00:04:00,
2013-07-12 19:15:00,86.0,68.0,29.92,SSE,167,8.0,14.0,55,0.00,,,0.00,,2013-07-13 00:15:00,
2013-07-12 19:24:00,86.0,68.0,29.93,SSE,165,14.0,24.0,55,0.00,,,0.00,,2013-07-13 00:24:00,
2013-07-12 19:32:00,86.0,68.0,29.93,SSE,165,14.0,24.0,55,0.00,,,0.00,,2013-07-13 00:32:00,
2013-07-12 19:45:00,86.0,68.0,29.93,South,184,11.0,11.0,55,0.00,,,0.00,,2013-07-13 00:45:00,
2013-07-12 19:54:00,86.0,68.0,29.93,South,174,14.0,20.0,55,0.00,,,0.00,,2013-07-13 00:54:00,
2013-07-12 20:02:00,86.0,68.0,29.93,South,172,11.0,19.0,55,0.00,,,0.00,,2013-07-13 01:02:00,
2013-07-12 20:24:00,85.0,68.0,29.93,South,177,10.0,19.0,56,0.00,,,0.00,,2013-07-13 01:24:00,
2013-07-12 20:35:00,85.0,68.0,29.93,SSE,155,9.0,11.0,56,0.00,,,0.00,,2013-07-13 01:35:00,
2013-07-12 20:45:00,84.0,67.0,29.93,SSE,156,13.0,18.0,56,0.00,,,0.00,,2013-07-13 01:45:00,
2013-07-12 20:54:00,84.0,67.0,29.93,SSE,156,13.0,18.0,56,0.00,,,0.00,,2013-07-13 01:54:00,
2013-07-12 21:04:00,83.0,67.0,29.93,SSE,154,11.0,19.0,58,0.00,,,0.00,,2013-07-13 02:04:00,
2013-07-12 21:14:00,83.0,67.0,29.93,South,171,0.0,6.0,58,0.00,,,0.00,,2013-07-13 02:14:00,
2013-07-12 21:22:00,82.0,66.0,29.93,NNE,20,0.0,0.0,59,0.00,,,0.00,,2013-07-13 02:22:00,
2013-07-12 21:35:00,82.0,66.0,29.93,NNE,20,0.0,0.0,59,0.00,,,0.00,,2013-07-13 02:35:00,
2013-07-12 21:45:00,82.0,67.0,29.94,North,4,0.0,0.0,60,0.00,,,0.00,,2013-07-13 02:45:00,
2013-07-12 21:53:00,82.0,67.0,29.94,North,4,0.0,0.0,60,0.00,,,0.00,,2013-07-13 02:53:00,
2013-07-12 22:04:00,81.0,66.0,29.94,North,4,0.0,0.0,60,0.00,,,0.00,,2013-07-13 03:04:00,
2013-07-12 22:12:00,81.0,66.0,29.94,North,4,0.0,0.0,60,0.00,,,0.00,,2013-07-13 03:12:00,
2013-07-12 22:25:00,81.0,65.0,29.94,SSE,155,6.0,21.0,59,0.00,,,0.00,,2013-07-13 03:25:00,
2013-07-12 22:35:00,81.0,65.0,29.94,North,4,2.0,0.0,59,0.00,,,0.00,,2013-07-13 03:35:00,
2013-07-12 22:44:00,80.0,64.0,29.94,ESE,111,7.0,13.0,58,0.00,,,0.00,,2013-07-13 03:44:00,
2013-07-12 22:57:00,80.0,64.0,29.94,North,10,0.0,0.0,58,0.00,,,0.00,,2013-07-13 03:57:00,
2013-07-12 23:01:00,80.0,64.0,29.94,North,10,0.0,0.0,58,0.00,,,0.00,,2013-07-13 04:01:00,
2013-07-12 23:11:00,80.0,64.0,29.94,South,177,2.0,5.0,58,0.00,,,0.00,,2013-07-13 04:11:00,
2013-07-12 23:22:00,80.0,63.0,29.95,NE,37,3.0,13.0,57,0.00,,,0.00,,2013-07-13 04:22:00,
2013-07-12 23:32:00,80.0,63.0,29.95,South,173,11.0,20.0,57,0.00,,,0.00,,2013-07-13 04:32:00,
2013-07-12 23:43:00,80.0,63.0,29.95,SSE,168,12.0,16.0,57,0.00,,,0.00,,2013-07-13 04:43:00,
2013-07-12 23:52:00,80.0,63.0,29.96,North,6,1.0,0.0,57,0.00,,,0.00,,2013-07-13 04:52:00,